Flag for U.S.A. Weather past 2 weeks in Beaumont, Texas, U.S.A.

Now
68 °F

Sunny.


Feels Like: 68 °F
Forecast: 63 / 80 °F
Wind: 6 mph from South

Location: Jefferson County Airport

Current Time: Mar 30, 2015 at 9:02:58 PM

Latest Report: Mar 30, 2015 at 7:53 PM


Visibility: 10 mi

Pressure: 30.12 "Hg

Humidity: 84%

Dew point: 63 °F

Location of BeaumontLocation

Historic Weather in Beaumont — Graph

°F

Beaumont temperature yesterday

Maximum temperature yesterday: 79 °F (at 1:00 PM)
Minimum temperature yesterday: 60 °F (at 12:53 AM)
Average temperature yesterday: 69 °F

Past Weeks' High & Low Weather Summary

 TemperatureHumidityPressure
High82 °F (Mar 30, 2:53 PM)100% (Mar 17, 4:53 AM)30.27 "Hg (Mar 17, 4:53 AM)
Low44 °F (Mar 27, 6:53 AM)24% (Mar 27, 3:53 PM)29.86 "Hg (Mar 26, 3:53 AM)
Average67 °F80%30.06 "Hg
* Reported Mar 15 7:53 PM — Mar 30 7:53 PM, Beaumont, Weather by CustomWeather, © 2015

Note: Actual official high and low records may vary slightly from our data, if they occured in-between our weather recording intervals... More about our weather records

Advertising

Beaumont weather history for previous 24 hours

 ConditionsComfort  
Time TempWeatherWind HumidityBarometerVisibility
7:53 PM
Mon, Mar 30
68 °FSunny.6 mph84%30.12 "Hg10 mi
6:53 PM74 °FPassing clouds.9 mph67%30.11 "Hg10 mi
5:53 PM77 °FScattered clouds.12 mph56%30.11 "Hg10 mi
4:53 PM79 °FSunny.14 mph54%30.12 "Hg10 mi
3:53 PM80 °FPartly sunny.15 mph52%30.14 "Hg10 mi
2:53 PM82 °FPartly sunny.16 mph49%30.16 "Hg10 mi
1:53 PM81 °FPartly sunny.15 mph51%30.18 "Hg10 mi
12:53 PM79 °FScattered clouds.9 mph52%30.21 "Hg10 mi
11:53 AM77 °FBroken clouds.10 mph60%30.22 "Hg10 mi
11:00 AM74 °FPartly sunny.9 mph67%30.23 "Hg10 mi
9:53 AM75 °FSunny.6 mph74%30.22 "Hg10 mi
8:53 AM69 °FSunny.No wind93%30.21 "Hg10 mi
7:53 AM62 °FPassing clouds.No wind96%30.20 "Hg10 mi
6:53 AM60 °FPassing clouds.No wind100%30.18 "Hg10 mi
5:53 AM63 °FPassing clouds.No wind97%30.16 "Hg7 mi
4:53 AM63 °FClear.3 mph97%30.14 "Hg10 mi
3:53 AM64 °FClear.7 mph94%30.13 "Hg10 mi
2:53 AM63 °FFog.6 mph93%30.14 "Hg6 mi
1:53 AM64 °FClear.5 mph94%30.16 "Hg10 mi
12:53 AM66 °FClear.6 mph90%30.17 "Hg10 mi
11:53 PM
Sun, Mar 29
67 °FClear.10 mph87%30.15 "Hg10 mi
10:53 PM67 °FClear.9 mph87%30.15 "Hg10 mi
9:53 PM67 °FClear.9 mph87%30.16 "Hg10 mi
Weather by CustomWeather, © 2015

See weather overviewHow to use our weather pages